User: anonymous   Login
Location: Clatteringshaws Loch
(55.0508°N, 4.2860°W)
Time: 13:54:02
(UTC+00:00)
Language:

Cosmos 2221 Rocket - Orbit

View from above orbital plane
View from above orbital plane
View from above satellite
View from above satellite

Ground track
Ground track

The orbit data is extracted from the following two-line orbital elements,

1 22237U 92080B   15058.29198762  .00000430  00000-0  56149-4 0  9994
2 22237 082.5143 179.8387 0021249 076.2512 311.5480 14.78070395199213
Epoch (UTC): 27 February 2015 07:00:27
Eccentricity: 0.0021249
inclination: 82.5143°
perigee height: 620 km
apogee height: 650 km
right ascension of ascending node: 179.8387°
argument of perigee: 76.2512°
revolutions per day: 14.78070395
mean anomaly at epoch: 311.5480°
orbit number at epoch: 19921

The dashed part of the orbit path shows where the satellite is in the earth's shadow,  

DLR